Location: Madden
(51.3728°N, 114.3297°W)
Time: 18:17:17
(UTC+00:00)

CUTE-I - Pass Details

Date: 17 December 2023
Orbit: 807 x 822 km, 98.7° (Epoch: 20 February)

Event Time Altitude Azimuth Distance (km) Brightness Sun altitude
Rises 14:12:45 0° 15° (NNE) 3,370 ? -12.2°
Reaches altitude 10° 14:15:06 10° 16° (NNE) 2,434 ? -11.9°
Maximum altitude 14:20:31 88° 102° (ESE) 832 ? -11.1°
Drops below altitude 10° 14:25:53 10° 196° (SSW) 2,418 ? -10.3°
Sets 14:28:13 0° 197° (SSW) 3,345 ? -10.0°
